Location: Meanaryar
(48.4161°N, 4.7315°W)
Time: 11:11:09
(UTC+00:00)

Cosmos 1513 Rocket - Pass Details

Date: 18 September 2020
Orbit: 939 x 1009 km, 82.9° (Epoch: 24 October)

Event Time Altitude Azimuth Distance (km) Brightness Sun altitude
Rises 19:33:51 0° 177° (S) 3,692 7.3 -12.2°
Reaches altitude 10° 19:36:23 10° 175° (S) 2,739 6.6 -12.6°
Maximum altitude 19:42:36 66° 94° (E) 1,059 4.5 -13.6°
Drops below altitude 10° 19:48:43 10° 14° (NNE) 2,708 6.9 -14.5°
Sets 19:51:14 0° 12° (NNE) 3,649 7.6 -14.9°
